GW5950 Weather Reports


time (UTC)temp
C
wind
direction
speed
KPH
gust
KPH
rain 1hr
cm
rain 24hr
cm
rain mn
cm
humidity
%
barometer
mb
20260503000820 10 77 1.6 1.6 0.00 0.15 0.15 88 1009.3
20260503000319 10 141 0.0 0.0 0.00 0.15 0.15 88 1009.3
20260502235814 10 150 0.0 0.0 0.00 0.15 0.15 88 1009.2
20260502235312 10 89 0.0 1.6 0.00 0.15 0.15 87 1009.1
20260502234808 10 189 0.0 1.6 0.00 0.15 0.15 87 1009.1
20260502234305 10 103 1.6 3.2 0.00 0.15 0.15 86 1009.0
20260502233801 10 75 1.6 3.2 0.00 0.15 0.15 86 1009.1
20260502233258 10 105 3.2 3.2 0.00 0.15 0.15 86 1009.1
20260502232754 10 205 0.0 1.6 0.00 0.15 0.15 85 1009.2
20260502232251 10 129 1.6 3.2 0.00 0.15 0.15 85 1009.1
20260502231748 10 114 3.2 3.2 0.00 0.15 0.15 86 1009.0
20260502231246 10 184 0.0 3.2 0.00 0.15 0.15 85 1009.0
20260502230744 10 199 3.2 3.2 0.00 0.15 0.15 85 1009.3
20260502230242 10 106 3.2 4.8 0.00 0.15 0.15 85 1009.1
20260502225738 10 184 0.0 3.2 0.00 0.15 0.15 85 1009.2
20260502225235 10 217 1.6 3.2 0.00 0.15 0.15 86 1009.0
20260502224731 10 182 3.2 4.8 0.00 0.15 0.15 86 1009.0
20260502224228 10 132 0.0 3.2 0.00 0.15 0.15 86 1008.7
20260502223726 10 76 0.0 1.6 0.00 0.15 0.15 86 1008.9
20260502223224 10 181 3.2 6.4 0.00 0.15 0.15 86 1008.8
20260502222721 10 181 3.2 4.8 0.00 0.15 0.15 86 1008.8
20260502222218 10 183 3.2 3.2 0.00 0.15 0.15 85 1008.8
20260502221714 10 109 3.2 3.2 0.00 0.15 0.15 86 1009.0
20260502221210 10 129 3.2 3.2 0.00 0.15 0.15 86 1009.1
20260502220706 10 121 3.2 3.2 0.00 0.15 0.15 87 1008.9
20260502220203 10 103 4.8 8.0 0.00 0.15 0.15 87 1009.0
20260502215700 10 110 3.2 3.2 0.00 0.15 0.15 87 1009.0
20260502215157 10 181 1.6 6.4 0.00 0.15 0.15 87 1009.2
20260502214654 10 175 0.0 4.8 0.00 0.15 0.15 87 1009.2
20260502214151 10 234 1.6 3.2 0.00 0.15 0.15 86 1009.0
20260502213648 10 168 0.0 3.2 0.00 0.15 0.15 86 1009.3
20260502213146 10 254 1.6 6.4 0.00 0.15 0.15 86 1009.1
20260502212644 10 282 3.2 6.4 0.00 0.15 0.15 86 1009.1
20260502212142 10 225 1.6 6.4 0.00 0.15 0.15 86 1008.9
20260502211637 10 59 3.2 6.4 0.00 0.15 0.15 86 1009.0
20260502211135 10 323 1.6 4.8 0.00 0.15 0.15 85 1009.1
20260502210632 10 302 6.4 9.7 0.00 0.15 0.15 84 1009.2
20260502210129 10 46 3.2 8.0 0.00 0.15 0.15 84 1009.2
20260502205626 10 253 3.2 8.0 0.00 0.15 0.15 83 1009.2
20260502205122 10 21 4.8 9.7 0.00 0.15 0.15 81 1009.2
20260502204619 11 322 3.2 12.9 0.00 0.15 0.15 77 1009.3
20260502204117 11 240 6.4 9.7 0.00 0.15 0.15 76 1009.1
20260502203614 11 280 4.8 8.0 0.00 0.15 0.15 77 1009.0
20260502203112 11 288 4.8 8.0 0.00 0.15 0.15 75 1009.0
20260502202607 11 308 4.8 6.4 0.00 0.15 0.15 75 1008.8
20260502202105 12 261 6.4 9.7 0.00 0.15 0.15 72 1008.9
20260502201601 12 308 3.2 4.8 0.00 0.15 0.15 70 1008.8
20260502201058 12 239 3.2 8.0 0.00 0.15 0.15 69 1008.9
20260502200554 12 127 3.2 9.7 0.00 0.15 0.15 69 1008.9
20260502200052 12 290 3.2 8.0 0.00 0.15 0.15 70 1008.8
20260502195549 12 141 3.2 12.9 0.00 0.15 0.15 70 1008.8
20260502195045 13 260 4.8 4.8 0.00 0.15 0.15 70 1008.8
20260502194542 13 220 8.0 9.7 0.00 0.15 0.15 68 1008.8
20260502194038 13 161 4.8 9.7 0.00 0.15 0.15 69 1008.9
20260502193536 13 161 3.2 8.0 0.00 0.15 0.15 70 1008.9
20260502193032 13 57 4.8 9.7 0.00 0.15 0.15 70 1008.9
20260502192528 13 110 3.2 12.9 0.00 0.15 0.15 70 1009.5
20260502192026 13 146 1.6 4.8 0.00 0.15 0.15 70 1009.0
20260502191522 13 133 3.2 9.7 0.00 0.15 0.15 70 1009.2
20260502191020 13 144 3.2 9.7 0.00 0.15 0.15 69 1009.1
20260502190517 13 127 1.6 11.3 0.00 0.15 0.15 71 1009.2
20260502190014 13 130 0.0 12.9 0.00 0.15 0.15 72 1009.1
20260502185509 12 101 9.7 14.5 0.00 0.15 0.15 72 1009.2
20260502185006 13 193 6.4 6.4 0.00 0.15 0.15 70 1009.1
20260502184501 13 200 1.6 4.8 0.00 0.15 0.15 67 1009.3
20260502183958 13 200 6.4 14.5 0.00 0.15 0.15 65 1009.3
20260502183454 14 176 3.2 6.4 0.00 0.15 0.15 65 1009.4
20260502182949 13 216 4.8 14.5 0.00 0.15 0.15 65 1009.4
20260502182445 14 229 8.0 9.7 0.00 0.15 0.15 63 1009.2
20260502181941 13 134 3.2 11.3 0.00 0.15 0.15 63 1009.2
20260502181440 13 247 3.2 17.7 0.00 0.15 0.15 63 1009.3
20260502180938 13 196 16.1 17.7 0.00 0.15 0.15 62 1009.4
20260502180435 13 201 4.8 6.4 0.00 0.15 0.15 62 1009.3
20260502170354 12 193 8.0 17.7 0.00 0.15 0.15 72 1009.9
20260502164341 12 221 3.2 14.5 0.00 0.15 0.15 81 1010.2
20260502163837 12 197 3.2 4.8 0.00 0.15 0.15 81 1010.1
20260502163333 12 294 4.8 11.3 0.00 0.15 0.15 80 1010.1
20260502162831 12 161 3.2 4.8 0.00 0.15 0.15 82 1010.3
20260502162328 12 226 6.4 9.7 0.00 0.15 0.15 82 1010.3
20260502161825 11 165 3.2 9.7 0.00 0.15 0.15 83 1010.4
20260502161321 11 172 3.2 6.4 0.00 0.15 0.15 86 1010.7
20260502160819 11 233 3.2 6.4 0.00 0.15 0.15 86 1010.5
20260502160317 11 161 1.6 8.0 0.00 0.15 0.15 87 1010.9
20260502152247 10 181 1.6 3.2 0.00 0.15 0.15 90 1010.8
20260502151744 10 150 0.0 8.0 0.00 0.15 0.15 90 1010.7
20260502151241 10 125 3.2 6.4 0.00 0.15 0.15 91 1010.6
20260502150739 10 145 0.0 1.6 0.00 0.15 0.15 91 1010.8
20260502150235 10 164 3.2 6.4 0.00 0.15 0.15 91 1010.6
20260502130624 8 107 1.6 3.2 0.00 0.13 0.13 95 1011.6
20260502130122 7 177 3.2 3.2 0.00 0.13 0.13 95 1011.8
20260502123607 7 98 0.0 3.2 0.05 0.10 0.10 97 1011.8
20260502123103 7 67 1.6 4.8 0.13 0.10 0.10 97 1011.8
20260502122600 7 10 0.0 1.6 0.05 0.08 0.08 97 1011.6
20260502122057 7 32 0.0 1.6 0.00 0.08 0.08 97 1011.4
20260502121555 7 115 3.2 3.2 0.00 0.08 0.08 97 1011.6
20260502121052 7 63 0.0 3.2 0.00 0.08 0.08 97 1011.2
20260502120548 7 60 1.6 3.2 0.00 0.08 0.08 97 1011.3
20260502115543 7 21 0.0 6.4 0.05 0.08 0.08 97 1011.3
20260502115039 7 281 1.6 3.2 0.00 0.05 0.05 97 1011.3
20260502114535 7 44 1.6 3.2 0.05 0.05 0.05 98 1011.3
20260502114032 7 60 4.8 4.8 0.13 0.05 0.05 97 1011.2
20260502113530 7 54 0.0 1.6 0.05 0.05 0.05 97 1011.5
20260502113029 7 75 3.2 3.2 0.00 0.05 0.05 97 1011.5
20260502112526 7 46 1.6 3.2 0.05 0.05 0.05 97 1011.5
20260502112023 7 269 0.0 0.0 0.05 0.05 0.05 96 1011.4
20260502111520 7 113 0.0 0.0 0.05 0.03 0.03 96 1011.3
20260502111018 7 130 0.0 0.0 0.13 0.03 0.03 95 1011.1
20260502110515 7 66 0.0 3.2 0.05 0.00 0.00 94 1011.0
20260502110013 7 32 0.0 3.2 0.05 0.00 0.00 94 1010.7
20260502105510 7 93 0.0 0.0 0.00 0.00 0.00 94 1010.8
20260502105008 7 164 1.6 1.6 0.00 0.00 0.00 94 1010.7
20260502104504 7 60 3.2 3.2 0.00 0.00 0.00 93 1010.6
20260502104002 7 150 1.6 1.6 0.00 0.00 0.00 93 1010.8
20260502103459 7 116 1.6 3.2 0.00 0.00 0.00 93 1010.7
20260502102956 7 73 0.0 1.6 0.00 0.00 0.00 93 1010.3
20260502102453 7 72 3.2 3.2 0.00 0.00 0.00 92 1010.3
20260502101950 7 164 0.0 3.2 0.00 0.00 0.00 93 1010.7
20260502101448 7 131 1.6 1.6 0.00 0.00 0.00 94 1010.5
20260502100946 7 234 1.6 3.2 0.00 0.00 0.00 94 1010.4
20260502100445 7 129 1.6 3.2 0.00 0.00 0.00 93 1010.3
20260502091419 8 104 4.8 4.8 0.00 0.00 0.00 86 1010.1
20260502090916 8 115 1.6 3.2 0.00 0.00 0.00 84 1010.6
20260502090414 8 184 3.2 4.8 0.00 0.00 0.00 86 1010.8
20260502071308 8 112 1.6 3.2 0.00 0.00 0.00 79 1010.4
20260502070806 8 126 3.2 4.8 0.00 0.00 0.00 78 1010.3
20260502070304 8 80 3.2 3.2 0.00 0.00 0.00 79 1010.6
20260502065802 7 167 3.2 3.2 0.00 0.00 0.00 82 1010.7
20260502065300 7 103 1.6 4.8 0.00 0.00 0.00 81 1010.5
20260502064758 7 124 1.6 4.8 0.00 0.00 0.00 85 1010.9
20260502064255 6 116 1.6 1.6 0.00 0.00 0.00 85 1010.6
20260502063753 7 50 1.6 3.2 0.00 0.00 0.00 86 1010.6
20260502063251 7 61 3.2 3.2 0.00 0.00 0.00 86 1010.7
20260502062747 6 44 0.0 1.6 0.00 0.00 0.00 85 1010.7
20260502062245 6 124 0.0 1.6 0.00 0.00 0.00 85 1010.4
20260502061743 6 106 0.0 0.0 0.00 0.00 0.00 85 1010.3
20260502061241 6 113 0.0 1.6 0.00 0.00 0.00 85 1010.3
20260502060736 6 94 1.6 3.2 0.00 0.00 0.00 84 1010.2
20260502060232 6 116 3.2 3.2 0.00 0.00 0.00 84 1010.1
20260502055730 6 113 0.0 3.2 0.00 0.00 0.00 83 1010.3
20260502055228 6 64 1.6 3.2 0.00 0.00 0.00 83 1010.1
20260502054727 6 105 1.6 3.2 0.00 0.00 0.00 83 1010.3
20260502054224 6 89 0.0 4.8 0.00 0.00 0.00 83 1010.3
20260502053721 6 97 3.2 3.2 0.00 0.00 0.00 82 1010.3
20260502053218 6 150 0.0 1.6 0.00 0.00 0.00 82 1010.3
20260502052716 6 148 0.0 0.0 0.00 0.00 0.00 83 1010.2
20260502052214 6 164 1.6 1.6 0.00 0.00 0.00 83 1010.3
20260502051712 6 89 0.0 1.6 0.00 0.00 0.00 83 1010.5
20260502051210 6 89 0.0 0.0 0.00 0.00 0.00 82 1010.3
20260502050706 6 113 0.0 1.6 0.00 0.00 0.00 81 1010.2
20260502050202 6 64 1.6 3.2 0.00 0.00 0.00 81 1010.5
20260502045659 6 55 0.0 0.0 0.00 0.00 0.00 81 1010.3
20260502045156 6 100 3.2 3.2 0.00 0.00 0.00 80 1010.3
20260502044653 7 88 1.6 3.2 0.00 0.00 0.00 79 1010.4
20260502044149 7 94 3.2 3.2 0.00 0.00 0.00 79 1010.6
20260502043647 7 85 3.2 3.2 0.00 0.00 0.00 79 1010.5
20260502043144 7 82 1.6 3.2 0.00 0.00 0.00 79 1010.5
20260502042643 6 89 1.6 3.2 0.00 0.00 0.00 78 1010.7
20260502042140 6 72 1.6 1.6 0.00 0.00 0.00 78 1010.6
20260502041638 6 107 1.6 1.6 0.00 0.00 0.00 78 1010.7
20260502041135 6 68 1.6 1.6 0.00 0.00 0.00 77 1010.7
20260502040632 7 66 0.0 1.6 0.00 0.00 0.00 78 1010.7
20260502040130 7 78 0.0 3.2 0.00 0.00 0.00 77 1010.7
20260502035625 7 94 3.2 3.2 0.00 0.00 0.00 76 1010.6
20260502035122 7 86 3.2 4.8 0.00 0.00 0.00 76 1010.7
20260502034620 7 296 3.2 3.2 0.00 0.00 0.00 75 1010.7
20260502034119 7 224 0.0 3.2 0.00 0.00 0.00 74 1010.6
20260502033616 7 113 3.2 3.2 0.00 0.00 0.00 74 1010.6
20260502033114 7 116 1.6 1.6 0.00 0.00 0.00 73 1010.6
20260502032614 7 98 0.0 1.6 0.00 0.00 0.00 72 1010.6
20260502032111 7 67 0.0 1.6 0.00 0.00 0.00 72 1010.5
20260502031609 7 89 0.0 1.6 0.00 0.00 0.00 71 1010.4
20260502031107 7 89 0.0 1.6 0.00 0.00 0.00 72 1010.6
20260502030606 7 29 0.0 1.6 0.00 0.00 0.00 70 1010.3
20260502025600 7 52 0.0 1.6 0.00 0.00 0.00 73 1010.3
20260502025058 7 59 0.0 1.6 0.00 0.00 0.00 73 1010.4
20260502024555 6 88 1.6 3.2 0.00 0.00 0.00 72 1010.3
20260502024053 6 84 1.6 3.2 0.00 0.00 0.00 72 1010.2
20260502023551 7 113 0.0 1.6 0.00 0.00 0.00 72 1010.5
20260502023048 6 113 3.2 3.2 0.00 0.00 0.00 70 1010.4
20260502022544 6 65 0.0 1.6 0.00 0.00 0.00 69 1010.2
20260502022042 6 160 0.0 1.6 0.00 0.00 0.00 70 1010.3
20260502021539 6 103 0.0 0.0 0.00 0.00 0.00 71 1010.4
20260502021036 6 100 0.0 1.6 0.00 0.00 0.00 70 1010.3
20260502020534 6 59 1.6 1.6 0.00 0.00 0.00 69 1010.4
20260502020031 6 66 0.0 1.6 0.00 0.00 0.00 68 1010.3
20260502015529 7 135 0.0 1.6 0.00 0.00 0.00 68 1010.3
20260502015024 7 113 0.0 3.2 0.00 0.00 0.00 68 1010.3
20260502014522 7 95 1.6 3.2 0.00 0.00 0.00 65 1010.4
20260502014019 7 140 1.6 1.6 0.00 0.00 0.00 66 1010.4
20260502013514 7 89 0.0 1.6 0.00 0.00 0.00 65 1010.3
20260502013010 7 46 3.2 3.2 0.00 0.00 0.00 64 1010.2
20260502012508 7 167 1.6 1.6 0.00 0.00 0.00 64 1010.2
20260502012006 8 103 0.0 0.0 0.00 0.00 0.00 62 1010.0
20260502011501 8 44 0.0 0.0 0.00 0.00 0.00 61 1010.0
20260502010958 8 61 1.6 1.6 0.00 0.00 0.00 61 1010.1
20260502010455 8 105 0.0 1.6 0.00 0.00 0.00 61 1010.1
20260502005951 8 121 1.6 1.6 0.00 0.00 0.00 60 1010.2
20260502005449 9 32 0.0 1.6 0.00 0.00 0.00 58 1010.0
20260502004948 9 102 0.0 0.0 0.00 0.00 0.00 57 1010.0
20260502004443 9 89 0.0 1.6 0.00 0.00 0.00 55 1009.8
20260502003940 10 103 0.0 0.0 0.00 0.00 0.00 56 1009.8
20260502003438 10 55 0.0 0.0 0.00 0.00 0.00 54 1009.8
20260502002933 10 49 0.0 0.0 0.00 0.00 0.00 52 1009.7
20260502002431 10 93 0.0 1.6 0.00 0.00 0.00 50 1009.5
20260502001928 11 66 0.0 1.6 0.00 0.00 0.00 49 1009.4
20260502001426 11 113 0.0 0.0 0.00 0.00 0.00 51 1009.4
20260502000923 11 103 0.0 0.0 0.00 0.00 0.00 48 1009.2